sat.trackr.live / text

‹ back to catalog

STARLINK-32237

NORAD 60443 · 2024-144U

PAYLOAD ACTIVE UNKNOWN

§ Identity

Operator
Country
US
Launch date
2024-08-12
Launch site
AFETR
Launch vehicle
Mass (kg)
RCS (m²)

Purposes: comms

External: N2YO · Heavens-Above · Gunter

§ Orbital elements

Epoch: 2026-05-25T04:50:10.744800Z

Period
93.85 min
Inclination
53.1613°
Eccentricity
0.0001161
Mean motion
15.34389338 rev/d
Perigee alt
461.9 km
Apogee alt
463.5 km
Semi-major
6,840.9 km
B*
5.1832e-5
RAAN
221.0194°
Arg perigee
87.1436°
Mean anomaly
272.9699°
Rev number
10,103

§ Raw data

STARLINK-322371 60443U 24144U   26145.20151325  .00001375  00000+0  51832-4 0  99972 60443  53.1613 221.0194 0001161  87.1436 272.9699 15.34389338101031

JSON: /api/v1/satellites/60443 · /tle

For live sub-satellite position, see the globe view (requires WebGL).

§ Visibility from observer

Set your observer location to see the next 7 days of passes ≥ 10°. The values pass through the URL so the page stays shareable.

No JS? Fill the form by hand. The geolocation button needs JavaScript.